Regional Weather Roundup
Issued by NWS

Home | Current Version | Previous Version | Graphics & Text | Print | Product List | Glossary On
Versions: 1 2 3 4 5 6 7 8 9 10 11 12 13 14 15 16 17 18 19 20 21 22 23 24 25 26 27 28 29 30 31 32 33 34 35 36 37 38 39 40 41 42 43 44 45 46 47 48 49 50
000
ASUS43 KFSD 201802
RWRSD

WEATHER ROUNDUP FOR SOUTH DAKOTA
NATIONAL WEATHER SERVICE SIOUX FALLS SD
1200 PM CST FRI JAN 20 2017

NOTE: "FAIR" INDICATES FEW OR NO CLOUDS BELOW 12,000 FEET WITH NO
SIGNIFICANT WEATHER AND/OR OBSTRUCTIONS TO VISIBILITY.


SDZ001>005-009-010-012>017-201900-
NORTHWEST AND NORTH CENTRAL SOUTH DAKOTA

CITY           SKY/WX    TMP DP  RH WIND       PRES   REMARKS
BUFFALO          N/A     36  31  82 NW29      29.28F
FAITH            N/A     24  21  88 N6        29.34F WCI  17
MOBRIDGE       FOG       26  22  84 N7        29.33F VSB 1   WCI  18
$$

SDZ012>016-024>037-041>051-057-063-072>074-201900-
SOUTHWEST AND SOUTH CENTRAL SOUTH DAKOTA

CITY           SKY/WX    TMP DP  RH WIND       PRES   REMARKS
RAPID CTY ARPT MOSUNNY   41  31  67 NW23      29.34F
PIERRE         CLOUDY    17  14  88 SW8       29.36F WCI   7
CUSTER         CLOUDY    38  24  57 N7G16     29.35S
ELLSWORTH AFB  PTSUNNY   39  32  75 N21       29.33F
PHILIP         CLOUDY    31  25  78 W9        29.34F WCI  23
PINE RIDGE     CLOUDY    33  27  78 SW7       29.39F WCI  27
SPEARFISH      PTSUNNY   37  32  81 W13       29.40F
WINNER         FAIR      40  28  62 S8        29.36F
$$

SDZ004>011-016>023-039-040-201900-
NORTHEAST SOUTH DAKOTA

CITY           SKY/WX    TMP DP  RH WIND       PRES   REMARKS
ABERDEEN       CLOUDY    35  32  88 SE8       29.41F WCI  29
WATERTOWN      CLOUDY    36  35  96 SE10      29.42F
BROOKINGS      CLOUDY    37  36  96 SE17      29.44F FOG
SISSETON         N/A     35  35 100 S10       29.46F WCI  27
$$

SDZ017-020-022-023-036>040-048>070-201900-
SOUTHEAST SOUTH DAKOTA

CITY           SKY/WX    TMP DP  RH WIND       PRES   REMARKS
SIOUX FALLS    CLOUDY    39  39 100 S16       29.47F FOG
HURON          CLOUDY    37  36  96 S13       29.39F
CHAMBERLAIN    SUNNY     32  32 100 CALM      29.37F
MITCHELL       CLOUDY    40  37  89 S15       29.41F
YANKTON        CLOUDY    43  39  87 S13       29.45F
$$

ABBREVIATIONS USED IN REMARKS
   TC - TEMPERATURE IN CELSIUS
  WCI - WIND CHILL INDEX
   HX - HEAT INDEX
  VSB - VISIBILITY





USA.gov is the U.S. government's official web portal to all federal, state and local government web resources and services.